EW5797 Weather Reports


Display with metric or nautical units.
time (UTC)temp
F
wind
direction
speed
MPH
gust
MPH
rain 1hr
in
rain 24hr
in
rain mn
in
humidity
%
barometer
mb
20260504200203 74 265 2.0 12.0 0.00 0.00 0.00 50 1014.3
20260504195203 74 161 2.0 13.0 0.00 0.00 0.00 47 1014.5
20260504194703 75 243 2.0 6.0 0.00 0.00 0.00 47 1014.6
20260504193703 73 45 3.0 6.0 0.00 0.00 0.00 47 1014.8
20260504193203 73 46 1.0 6.0 0.00 0.00 0.00 50 1014.9
20260504192203 74 328 2.0 8.0 0.00 0.00 0.00 50 1015.2
20260504191703 74 254 2.0 8.0 0.00 0.00 0.00 52 1015.3
20260504191203 73 228 3.0 12.0 0.00 0.00 0.00 49 1015.3
20260504190702 73 238 3.0 6.0 0.00 0.00 0.00 48 1015.4
20260504190203 73 317 3.0 7.0 0.00 0.00 0.00 47 1015.6
20260504185703 73 303 1.0 7.0 0.00 0.00 0.00 45 1015.6
20260504185202 73 190 3.0 5.0 0.00 0.00 0.00 51 1015.7
20260504184703 73 177 5.0 12.0 0.00 0.00 0.00 47 1015.7
20260504184203 73 130 2.0 6.0 0.00 0.00 0.00 48 1015.9
20260504183703 72 256 3.0 9.0 0.00 0.00 0.00 48 1015.9
20260504183203 73 246 2.0 9.0 0.00 0.00 0.00 45 1016.0
20260504182702 72 282 3.0 9.0 0.00 0.00 0.00 48 1016.0
20260504182203 71 286 4.0 8.0 0.00 0.00 0.00 46 1016.1
20260504181703 72 281 3.0 9.0 0.00 0.00 0.00 47 1016.2
20260504181203 72 170 3.0 9.0 0.00 0.00 0.00 48 1016.2
20260504180703 72 207 3.0 8.0 0.00 0.00 0.00 48 1016.2
20260504180203 72 278 2.0 10.0 0.00 0.00 0.00 46 1016.3
20260504175703 71 254 2.0 8.0 0.00 0.00 0.00 48 1016.4
20260504175203 72 268 3.0 10.0 0.00 0.00 0.00 48 1016.5
20260504174702 71 253 2.0 7.0 0.00 0.00 0.00 47 1016.4
20260504173703 70 291 3.0 9.0 0.00 0.00 0.00 48 1016.4
20260504173203 69 267 2.0 8.0 0.00 0.00 0.00 49 1016.5
20260504172703 69 130 2.0 6.0 0.00 0.00 0.00 50 1016.5
20260504172203 69 157 2.0 6.0 0.00 0.00 0.00 49 1016.6
20260504171703 68 259 2.0 8.0 0.00 0.00 0.00 49 1016.6
20260504170703 67 319 1.0 3.0 0.00 0.00 0.00 50 1016.8
20260504150703 59 5 2.0 5.0 0.00 0.00 0.00 65 1019.2
20260504150203 58 177 1.0 3.0 0.00 0.00 0.00 63 1019.4
20260504141203 53 175 1.0 3.0 0.00 0.00 0.00 72 1019.7
20260504140203 52 35 1.0 3.0 0.00 0.00 0.00 76 1019.9
20260504130703 47 33 1.0 3.0 0.00 0.00 0.00 85 1018.9
20260504130203 46 48 1.0 3.0 0.00 0.00 0.00 86 1018.9
20260504120203 42 335 1.0 2.0 0.00 0.00 0.00 92 1018.1
20260504110703 39 51 1.0 2.0 0.00 0.00 0.00 90 1017.2
20260504110203 39 312 1.0 2.0 0.00 0.00 0.00 90 1017.3
20260504100203 38 320 0.0 1.0 0.00 0.00 0.00 87 1017.9
20260504081703 40 259 0.0 1.0 0.00 0.00 0.00 84 1018.0
20260504081203 41 321 0.0 1.0 0.00 0.00 0.00 85 1018.0
20260504080703 41 304 1.0 1.0 0.00 0.00 0.00 85 1018.1
20260504080203 41 25 1.0 2.0 0.00 0.00 0.00 85 1018.0
20260504060203 42 312 1.0 1.0 0.00 0.00 0.00 79 1018.2
20260504050704 44 131 0.0 1.0 0.00 0.00 0.00 75 1018.2
20260504045704 44 165 1.0 2.0 0.00 0.00 0.00 74 1018.1
20260504044704 45 184 1.0 2.0 0.00 0.00 0.00 74 1018.2
20260504044204 45 200 1.0 2.0 0.00 0.00 0.00 73 1018.1
20260504043703 45 158 1.0 2.0 0.00 0.00 0.00 72 1018.1
20260504043203 45 167 1.0 2.0 0.00 0.00 0.00 71 1018.1
20260504042703 45 233 0.0 2.0 0.00 0.00 0.00 70 1018.0
20260504041203 46 211 1.0 2.0 0.00 0.00 0.00 69 1017.9
20260504040703 46 195 0.0 2.0 0.00 0.00 0.00 69 1017.9
20260504040203 46 317 1.0 1.0 0.00 0.00 0.00 68 1017.8
20260504035703 46 161 1.0 2.0 0.00 0.00 0.00 68 1017.9
20260504035203 47 297 0.0 1.0 0.00 0.00 0.00 68 1018.0
20260504034703 47 322 0.0 1.0 0.00 0.00 0.00 67 1017.9
20260504034203 47 32 0.0 1.0 0.00 0.00 0.00 67 1018.0
20260504033203 47 342 0.0 1.0 0.00 0.00 0.00 67 1017.7
20260504032203 48 113 0.0 1.0 0.00 0.00 0.00 64 1017.8
20260504031703 48 130 0.0 2.0 0.00 0.00 0.00 63 1017.8
20260504031204 48 287 0.0 1.0 0.00 0.00 0.00 63 1017.6
20260504030703 48 129 1.0 1.0 0.00 0.00 0.00 61 1017.6
20260504030203 48 296 0.0 1.0 0.00 0.00 0.00 61 1017.7
20260504025704 49 310 0.0 1.0 0.00 0.00 0.00 60 1017.8
20260504025204 49 218 0.0 1.0 0.00 0.00 0.00 60 1017.7
20260504024203 49 81 0.0 1.0 0.00 0.00 0.00 60 1017.7
20260504023704 50 7 1.0 2.0 0.00 0.00 0.00 59 1017.7
20260504022704 50 144 1.0 2.0 0.00 0.00 0.00 57 1017.6
20260504022204 50 138 1.0 2.0 0.00 0.00 0.00 57 1017.5
20260504021703 50 144 1.0 2.0 0.00 0.00 0.00 55 1017.6
20260504021203 50 276 0.0 1.0 0.00 0.00 0.00 56 1017.6
20260504020703 51 318 0.0 1.0 0.00 0.00 0.00 56 1017.6
20260504020203 51 312 1.0 1.0 0.00 0.00 0.00 55 1017.6
20260504015203 51 124 1.0 2.0 0.00 0.00 0.00 54 1017.3
20260504014203 51 141 0.0 1.0 0.00 0.00 0.00 55 1017.5
20260504013703 52 129 1.0 2.0 0.00 0.00 0.00 51 1017.5
20260504013203 52 155 1.0 2.0 0.00 0.00 0.00 53 1017.6
20260504012204 53 345 0.0 2.0 0.00 0.00 0.00 52 1017.6
20260504011703 54 186 1.0 1.0 0.00 0.00 0.00 52 1017.5
20260504011204 54 281 0.0 1.0 0.00 0.00 0.00 50 1017.5
20260504010704 55 126 0.0 1.0 0.00 0.00 0.00 50 1017.5
20260504010204 55 307 1.0 2.0 0.00 0.00 0.00 49 1017.5
20260504005704 56 125 1.0 1.0 0.00 0.00 0.00 49 1017.2
20260504004703 57 139 1.0 2.0 0.00 0.00 0.00 45 1017.1
20260504004204 57 73 0.0 1.0 0.00 0.00 0.00 45 1017.1
20260504003704 58 133 1.0 2.0 0.00 0.00 0.00 43 1017.1
20260504002703 58 142 1.0 2.0 0.00 0.00 0.00 42 1016.9
20260504001704 59 158 1.0 2.0 0.00 0.00 0.00 40 1016.8
20260504001203 59 164 1.0 5.0 0.00 0.00 0.00 39 1016.7
20260504000703 60 292 2.0 5.0 0.00 0.00 0.00 40 1016.8
20260504000204 60 265 2.0 3.0 0.00 0.00 0.00 40 1016.8
20260503235704 60 233 2.0 5.0 0.00 0.00 0.00 39 1016.9
20260503234704 61 212 1.0 3.0 0.00 0.00 0.00 38 1016.9
20260503234204 62 288 2.0 5.0 0.00 0.00 0.00 38 1016.8
20260503233704 62 189 2.0 5.0 0.00 0.00 0.00 37 1016.9
20260503233203 62 207 1.0 5.0 0.00 0.00 0.00 36 1017.0
20260503232703 62 269 2.0 7.0 0.00 0.00 0.00 36 1017.1
20260503232203 63 239 2.0 6.0 0.00 0.00 0.00 37 1017.0
20260503231203 63 268 2.0 6.0 0.00 0.00 0.00 36 1017.0
20260503230204 63 274 1.0 3.0 0.00 0.00 0.00 36 1017.0
20260503225203 63 253 2.0 7.0 0.00 0.00 0.00 36 1017.1
20260503224703 63 276 3.0 9.0 0.00 0.00 0.00 38 1017.1
20260503224203 63 192 3.0 12.0 0.00 0.00 0.00 36 1017.1
20260503223703 63 284 1.0 7.0 0.00 0.00 0.00 35 1017.2
20260503223203 63 276 2.0 10.0 0.00 0.00 0.00 35 1017.3
20260503222704 63 212 2.0 7.0 0.00 0.00 0.00 34 1017.3
20260503222204 63 267 2.0 7.0 0.00 0.00 0.00 34 1017.4
20260503221704 64 206 2.0 7.0 0.00 0.00 0.00 35 1017.4
20260503221203 64 210 3.0 9.0 0.00 0.00 0.00 35 1017.4
20260503220703 64 212 2.0 6.0 0.00 0.00 0.00 38 1017.5
20260503215703 64 195 3.0 5.0 0.00 0.00 0.00 36 1017.5
20260503215203 64 273 3.0 6.0 0.00 0.00 0.00 35 1017.5
20260503214704 64 242 2.0 7.0 0.00 0.00 0.00 35 1017.5
20260503213704 63 256 3.0 8.0 0.00 0.00 0.00 35 1017.6
20260503213204 63 214 2.0 5.0 0.00 0.00 0.00 33 1017.6
20260503212704 63 278 3.0 7.0 0.00 0.00 0.00 37 1017.9
20260503212203 63 199 1.0 6.0 0.00 0.00 0.00 37 1017.8
20260503211703 63 325 2.0 6.0 0.00 0.00 0.00 35 1017.9
20260503211204 63 249 3.0 9.0 0.00 0.00 0.00 35 1018.0
20260503205704 62 288 3.0 9.0 0.00 0.00 0.00 38 1018.1
20260503205204 62 276 3.0 10.0 0.00 0.00 0.00 38 1018.1
20260503204704 63 184 5.0 8.0 0.00 0.00 0.00 37 1018.2
20260503204203 63 243 2.0 5.0 0.00 0.00 0.00 39 1018.2
20260503203703 63 287 3.0 12.0 0.00 0.00 0.00 42 1018.3
20260503203204 62 278 2.0 8.0 0.00 0.00 0.00 40 1018.5
20260503202704 62 66 2.0 3.0 0.00 0.00 0.00 36 1018.5
20260503201703 62 243 3.0 10.0 0.00 0.00 0.00 40 1018.8
20260503201204 62 245 2.0 6.0 0.00 0.00 0.00 38 1018.8
20260503200703 62 189 3.0 7.0 0.00 0.00 0.00 37 1018.8